Regional Weather Roundup
Issued by NWS

Home | Current Version | Previous Version | Text Only | Print | Product List | Glossary On
Versions: 1 2 3 4 5 6 7 8 9 10 11 12 13 14 15 16 17 18 19 20 21 22 23 24 25 26 27 28 29 30 31 32 33 34 35 36 37 38 39 40 41 42 43 44 45 46 47 48 49 50
000
ASUS45 KSLC 030010
RWRUT

UTAH REGIONAL WEATHER ROUNDUP
NATIONAL WEATHER SERVICE SALT LAKE CITY UT
500 PM MST MON MAR 02 2015

UTZ001>011-023>025-030100-

NORTHERN UTAH

CITY           SKY/WX    TMP DP  RH WIND       PRES   REMARKS
BRIGHAM CITY   CLOUDY    35  33  91 CALM      29.63F
HILL AFB       LGT SNOW  35  35 100 NW10      29.61F FOG     WCI  27
LOGAN          LGT SNOW  35  32  88 NW3       29.61F FOG
OGDEN          LGT RAIN  35  35 100 NW8       29.61F FOG     WCI  29
PROVO AIRPORT  CLOUDY    39  36  87 W7        29.64R WCI  34
SALT LAKE CITY LGT RAIN  38  36  92 NW12      29.62R FOG     WCI  30
VERNAL         FOG       33  32  96 SE10      29.64S VSB 1/2 WCI  25
WENDOVER       CLOUDY    36  32  87 SW5       29.69S WCI  32
HEBER CITY     CLOUDY    34  32  93 CALM      29.60S
WEST JORDAN    CLOUDY    39  37  93 S8        29.62R WCI  34

$$

UTZ012>022-026-027-030100-

SOUTHERN/CENTRAL UTAH

CITY           SKY/WX    TMP DP  RH WIND       PRES   REMARKS
BLANDING       CLOUDY    35  33  94 SW9       29.88R WCI  27
BRYCE CANYON   MOSUNNY   29  23  78 SW14      29.72S WCI  18
CEDAR CITY     SNOW      32  31  96 SW20      29.76R VSB 1/2 WCI  20
DELTA          CLOUDY    37  34  89 SW25G37   29.68R WCI  26
HANKSVILLE     PTSUNNY   45  37  76 E5        29.68F
MILFORD        PTSUNNY   36  31  82 S25       29.71S WCI  24
MOAB/CYNLANDS  CLOUDY    43  39  86 CALM      29.69F
PRICE          CLOUDY    34  32  92 SW3       29.64F
ST GEORGE      CLOUDY    46  36  66 NW10G17   29.80R
KANAB          MOSUNNY   37  34  87 S13       29.82S WCI  29

$$

REGIONAL REPORTS     COLORADO/ARIZONA

CITY           SKY/WX    TMP DP  RH WIND       PRES   REMARKS
CRAIG, CO      RAIN      39  34  82 MISG      29.63R
GRAND JUNCTION CLOUDY    42  37  82 W12       29.69R
RIFLE          RAIN      42  36  79 W35G43    29.64R
MONTROSE       NOT AVBL
CORTEZ         RAIN      40  36  86 SW13G22   29.80R FOG     WCI  32
PAGE, AZ       MOSUNNY   46  35  65 CALM      29.76S
GRAND CANYON   LGT SNOW  31  30  96 SW14      29.84R VSB 1   WCI  21
KINGMAN        MOSUNNY   50  37  61 S21       29.84F
FLAGSTAFF      SNOW      29  27  92 SW12      29.86R VSB 1/4 WCI  19

$$

REGIONAL REPORTS    NEVADA/IDAHO/WYOMING

CITY           SKY/WX    TMP DP  RH WIND       PRES   REMARKS
LAS VEGAS, NV  MOSUNNY   58  30  34 SW18G28   29.75S
ELY            CLOUDY    31  28  89 CALM      29.71R FOG
ELKO           CLOUDY    42  23  46 NW6       29.68F
POCATELLO, ID  PTSUNNY   41  23  48 CALM      29.63F
BURLEY         MOSUNNY   47  15  27 W6        29.61F
EVANSTON, WY   CLOUDY    34  28  79 S8        29.56F WCI  27
ROCK SPRINGS   CLOUDY    29  28  96 W7        29.59F FOG     WCI  22
KEMMERER       CLOUDY    30  27  86 NE5       29.57F WCI  25

$$



USA.gov is the U.S. government's official web portal to all federal, state and local government web resources and services.